203P/Korlevic (2010)

Japanese version
Home page
Updated on September 4, 2011

---------------------------------------------------------------------

* Profile

Designation 203P/2008 R4
Recovery Date September 3, 2008
Magnitude 20.3 mag
Recoverer T. H. Bressi (Spacewatch), G. V. Williams (Minor Planet Center)

* Pictures

* Orbital Elements

Epoch 2010 Feb. 13.0 TT = JDT 2455240.5
T 2010 Feb. 8.20713 TT                                  MPC
q   3.1821314            (2000.0)            P               Q
n   0.09841073     Peri.  154.54519     +0.08469557     -0.99522062
a   4.6463054      Node   290.56509     +0.90508063     +0.09724277
e   0.3151265      Incl.    2.97583     +0.41672019     -0.00893108
P  10.0
From 541 observations 1999 Nov. 3-2010 Dec. 13, mean residual 0".7.

* Finding Charts

* Magnitudes Graph

        m1 = 4.2 + 5 log d + 20.0 log r(t - 80)

---------------------------------------------------------------------

The orbital elements are published on M.P.E.C. 2010-Y12.
The charts are made with StellaNavigator Ver.2.0 for Windows (AstroArts / ASCII).
The magnitudes graphs are made with Comet for Windows.

---------------------------------------------------------------------

Copyright(C) Seiichi Yoshida (comet@aerith.net). All rights reserved.